AirNav   Bose ProFlight Series 2 Headset
 
 466 users online  

9FL4 Pasco County Mosquito Heliport
New Port Richey, Florida, USA

GOING TO NEW PORT RICHEY?


FAA INFORMATION EFFECTIVE 02 JANUARY 2020

Location

FAA Identifier: 9FL4
Lat/Long: 28-11-36.2400N 082-37-13.4100W
28-11.604000N 082-37.223500W
28.1934000,-82.6203917
(estimated)
Elevation: 40 ft. / 12 m (estimated)
Variation: 03W (1995)
From city: 5 miles NW of NEW PORT RICHEY, FL
Time zone: UTC -5 (UTC -4 during Daylight Saving Time)
Zip code: 34655

Heliport Operations

Heliport use: Private use. Permission required prior to landing
Activation date: 10/1996
Control tower: no
ARTCC: MIAMI CENTER
FSS: SAINT PETERSBURG FLIGHT SERVICE STATION
Attendance: MON-FRI 0700-1530
Wind indicator: lighted
Segmented circle: no

Heliport Communications

WX ASOS at TPA (14 nm S): PHONE 813-873-7228
WX AWOS-3P at CLW (15 nm SW): 119.225 (727-449-2184)
WX ASOS at PIE (17 nm S): PHONE 727-531-3456
WX AWOS-3 at VDF (18 nm SE): 121.125 (813-630-0924)
WX ASOS at BKV (19 nm NE): 134.725 (352-799-5881)
WX AWOS-3 at TPF (19 nm SE): 118.925 (813-251-6824)

Nearby radio navigation aids

VOR radial/distance  VOR name  Freq  Var
PIEr016/17.5ST PETERSBURG VORTAC116.4005W
LALr290/34.4LAKELAND VORTAC116.0001E

 
NDB name  Hdg/Dist  Freq  Var  ID
COSME327/8.236805WTP - .--.
CAPOK025/12.736005WPI .--. ..

Heliport Services

Fuel available: A

Runway Information

Helipad H1

Dimensions: 60 x 60 ft. / 18 x 18 m
Surface: concrete, in good condition
Runway edge lights: non-standard
HELIPAD H1 NSTD FLOODLIGHTS WEST SIDE OF PAD.
Latitude: 28-11.604000N
Longitude: 082-37.223500W
Elevation: 40.0 ft.
Traffic pattern: leftleft

Heliport Ownership and Management from official FAA records

Ownership: Privately-owned
Owner: PASCO COUNTY MOSQUITO CONTROL
2308 MARATHON RD
ODESSA, FL 33556
Phone 727-376-4568
Manager: WAYNE DANIELS
2308 MARATHON RD
ODESSA, FL 33556
Phone 727-376-4568

Heliport Operational Statistics

Aircraft based on the field: 4
Single engine airplanes: 2
Helicopters: 2
    

Additional Remarks

ADDITIONAL CONTACT - WAYNE DANIELS - 727-376-4565 X 222 - WDANIELS@PASCOMOSQUITO.ORG
FOR CD CTC TAMPA APCH AT 813-878-2528

Instrument Procedures

There are no published instrument procedures at 9FL4.

Some nearby airports with instrument procedures:

KTPA - Tampa International Airport (14 nm S)
KCLW - Clearwater Air Park (15 nm SW)
KPIE - St Pete-Clearwater International Airport (17 nm S)
KVDF - Tampa Executive Airport (18 nm SE)
KBKV - Brooksville-Tampa Bay Regional Airport (19 nm NE)
KTPF - Peter O Knight Airport (19 nm SE)
 
Loc | Ops | Rwys | IFR | FBO | Links
Com | Nav | Svcs | Stats | Notes


 
Area around 9FL4 (Pasco County Mosquito Heliport)
 
Road maps at: MapQuest Bing Google
 
Aerial photo
No photo
 
Sectional chart

 
Airport distance calculator
Flying to Pasco County Mosquito Heliport? Find the distance to fly.

From to 9FL4

Sunrise and sunset
Times for 18-Jan-2020
 Local
(UTC-5)
 Zulu
(UTC)
Morning civil twilight06:5911:59
Sunrise07:2412:24
Sunset17:5822:58
Evening civil twilight18:2323:23

Current date and time
Zulu (UTC)  18-Jan-2020 08:33:04
Local (UTC-5)  18-Jan-2020 03:33:04
 
METAR
KTPA 
14nm S 
180753Z 06005KT 10SM FEW040 18/13 A3033 RMK AO2 SLP270 T01780128 $
KCLW 
15nm SW 
180815Z AUTO 09007KT 10SM CLR 17/13 A3032 RMK AO2 PWINO
KPIE 
17nm S 
180753Z AUTO 09010KT 10SM OVC038 19/15 A3032 RMK AO2 SLP267 T01940150
KVDF 
18nm SE 
180815Z AUTO 08003KT 10SM OVC043 15/13 A3033 RMK AO2
KBKV 
19nm NE 
180753Z AUTO 06006KT 10SM CLR 16/13 A3035 RMK AO2 SLP275 T01560128
KTPF 
19nm SE 
180815Z AUTO 09008KT 10SM SCT044 OVC100 18/15 A3032 RMK AO2
KMCF 
21nm S 
172155Z 10017G21KT 10SM FEW050 24/13 A3029 RMK AO2A SLP260
KZPH 
25nm E 
180815Z AUTO 06005KT 10SM CLR 16/13 A3034 RMK A02 T01620128
KSPG 
26nm S 
180753Z AUTO 08018KT 10SM OVC039 19/14 A3031 RMK AO2 SLP263 T01940144
KPCM 
27nm SE 
180815Z AUTO 08007KT 10SM OVC045 18/14 A3035 RMK AO2
TAF
KTPA 
14nm S 
180524Z 1806/1912 07007KT P6SM SCT250 FM181500 13009KT P6SM SCT030 SCT250 FM182100 16007KT P6SM SCT040 SCT250
KPIE 
17nm S 
180524Z 1806/1906 08010KT P6SM SCT250 FM181500 13012KT P6SM SCT030 SCT250 FM182000 17008KT P6SM SCT040 SCT250
NOTAMs
Click for the latest NOTAMs
NOTAMs are issued by the DoD/FAA and will open in a separate window not controlled by AirNav.

 

 
 

Would you like to see your business listed on this page?

 If your business provides an interesting product or service to pilots, flight crews, aircraft, or users of the Pasco County Mosquito Heliport, you should consider listing it here.  To start the listing process, click on the button below
 
Add a business
 

Other Pages about Pasco County Mosquito Heliport

Update a link
 
Copyright © AirNav, LLC. All rights reserved. Privacy Policy  Contact